Regional Weather Roundup
Issued by NWS

Home | Current Version | Previous Version | Graphics & Text | Print | Product List | Glossary On
Versions: 1 2 3 4 5 6 7 8 9 10 11 12 13 14 15 16 17 18 19 20 21 22 23 24 25 26 27 28 29 30 31 32 33 34 35 36 37 38 39 40 41 42 43 44 45 46 47 48 49 50
000
ASUS43 KTOP 200308
RWRKS

WEATHER ROUNDUP FOR KANSAS
NATIONAL WEATHER SERVICE GOODLAND KS
1000 PM CDT FRI SEP 19 2014

NOTE:  "FAIR" INDICATES FEW OR NO CLOUDS BELOW 12,000 FEET WITH NO
SIGNIFICANT WEATHER AND/OR OBSTRUCTIONS TO VISIBILITY.

KSZ001>006-013>018-027>032-041>047-200400-
NORTHWEST KANSAS

CITY           SKY/WX    TMP DP  RH WIND       PRES   REMARKS
GOODLAND       CLEAR     71  59  65 S12       29.94R
HAYS           PTCLDY    75  59  57 S12       29.92R
HILL CITY      PTCLDY    76  59  55 S8        29.90R
RUSSELL        PTCLDY    73  61  65 S12       29.90R
$$

KSZ061>065-074>080-084>089-200400-
SOUTHWEST KANSAS

CITY           SKY/WX    TMP DP  RH WIND       PRES   REMARKS
DODGE CITY     CLEAR     74  57  55 S14       29.95R
ELKHART          N/A     68  60  75 S10         N/A
GARDEN CITY    CLEAR     72  59  63 S9        29.95R
GREAT BEND     CLEAR     73  59  60 S14       29.92R
LIBERAL        CLEAR     73  57  56 S9        29.98R
PRATT          PTCLDY    75  59  57 S9        29.96R
$$

KSZ066>073-081>083-090>101-200400-
SOUTHEAST KANSAS

CITY           SKY/WX    TMP DP  RH WIND       PRES   REMARKS
CHANUTE        CLEAR     68  67  96 SE6       29.98S FOG
COFFEYVILLE    CLEAR     68  67  96 SE3       29.98R FOG
HUTCHINSON     CLEAR     77  63  61 S13       29.94R
MEDICINE LODGE   N/A     78  62  57 S9        29.94R
NEWTON         CLEAR     73  63  68 S13G20    29.97S
PARSONS        CLEAR     65  65 100 CALM      29.99S FOG
WICHITA INTL   CLEAR     75  66  73 SE10      29.95R
WICHITA JABRA  CLEAR     73  67  81 S10       29.95R
WICHITA MCCONL CLEAR     73  72  95 SE12      29.96R
WINFIELD       CLEAR     72  69  90 SE9       29.97S
$$

KSZ007>012-019>026-033>040-048>060-102>105-200400-
NORTHEAST KANSAS

CITY           SKY/WX    TMP DP  RH WIND       PRES   REMARKS
CONCORDIA      CLEAR     76  64  66 S13       29.89R
EMPORIA        CLEAR     69  68  96 S15       29.95S FOG
LAWRENCE       CLEAR     71  66  84 S8        29.94R
MANHATTAN      CLEAR     73  69  87 S7        29.91R
MARYSVILLE     PTCLDY    72  68  88 S9        29.90R
OLATHE IND     CLEAR     69  67  93 S8        29.96S
OLATHE EXE     CLEAR     70  67  90 S6        29.96R
SALINA         PTCLDY    78  65  63 S12       29.91R
TOPEKA BILLARD CLEAR     73  69  87 S10       29.93R
TOPEKA FORBES  CLEAR     71  67  87 S12       29.94R
$$


USA.gov is the U.S. government's official web portal to all federal, state and local government web resources and services.